{"data":{"norad_id":59487,"intl_designator":"2024-071D","name":"STARLINK-31657","alt_names":[],"object_type":"PAYLOAD","status":"ACTIVE","operator":null,"country":"US","launch_date":"2024-04-13","launch_site_code":"AFETR","launch_vehicle":null,"mission":null,"orbit_class":"UNKNOWN","rcs_meters":null,"size_class":null,"mass_kg":null,"dimensions":null,"purposes":["comms"],"wikipedia_slug":null,"has_3d_model":false,"image_url":null,"decayed_at":null,"tle_current":{"epoch":"2026-09-21T10:28:57.635616Z","epoch_age_seconds":84150,"freshness":"FRESH","line1":"1 59487U 24071D   26264.43677819  .00000237  00000+0  18128-4 0  9997","line2":"2 59487  43.0005 314.1793 0000867 275.1855  84.8897 15.27579437138140","mean_motion":15.27579437,"eccentricity":8.67e-5,"inclination_deg":43.0005,"raan_deg":314.1793,"arg_perigee_deg":275.1855,"mean_anomaly_deg":84.8897,"bstar":1.8128e-5,"rev_number":13814,"period_min":94.266783456316,"perigee_km":482.45591688402,"apogee_km":483.6456468454,"semimajor_km":6861.1877818647,"source":"CELESTRAK","updated_at":"2026-09-22T09:00:48.952718Z"}}}